XE2WR-3 Weather Reports


time (UTC)temp
C
wind
direction
speed
KPH
gust
KPH
rain 1hr
cm
rain 24hr
cm
rain mn
cm
humidity
%
barometer
mb
20260902141517 28 280 1.6 4.8 0.00 0.00 0.00 68 1015.5
20260902140014 27 280 0.0 0.0 0.00 0.00 0.00 58 1015.3
20260902134515 25 280 0.0 1.6 0.00 0.00 0.00 47 1015.4
20260902133011 25 280 0.0 1.6 0.00 0.00 0.00 38 1015.1
20260902131511 -17 0.0 0.0 0.00 0.00 0.00 1015.1
20260902130004 -17 0.0 0.0 0.00 0.00 0.00 1015.0
20260902124612 -17 0.0 0.0 0.00 0.00 0.00 1014.9
20260902123141 -17 0.0 0.0 0.00 0.00 0.00 1014.9
20260902121554 -17 0.0 0.0 0.00 0.00 0.00 1014.7
20260902120050 -17 0.0 0.0 0.00 0.00 0.00 1014.5
20260902114546 -17 0.0 0.0 0.00 0.00 0.00 1014.6
20260902113038 -17 0.0 0.0 0.00 0.00 0.00 1014.5
20260902111544 -17 0.0 0.0 0.00 0.00 0.00 1014.5
20260902110029 -17 0.0 0.0 0.00 0.00 0.00 1014.5
20260902104525 -17 0.0 0.0 0.00 0.00 0.00 1014.4
20260902103022 -17 0.0 0.0 0.00 0.00 0.00 1014.5
20260902101516 -17 0.0 0.0 0.00 0.00 0.00 1014.5
20260902100012 -17 0.0 0.0 0.00 0.00 0.00 1014.4
20260902094507 -17 0.0 0.0 0.00 0.00 0.00 1014.3
20260902093003 25 96 4.8 8.0 0.00 0.00 0.00 37 1014.3
20260902091500 25 83 4.8 8.0 0.00 0.00 0.00 37 1014.5
20260902084556 25 79 6.4 9.7 0.00 0.00 0.00 44 1014.7
20260902083057 25 81 4.8 9.7 0.00 0.00 0.00 46 1015.0
20260902081553 25 58 3.2 12.9 0.00 0.00 0.00 48 1014.9
20260902080052 25 56 6.4 11.3 0.00 0.00 0.00 52 1014.9
20260902074549 26 58 4.8 16.1 0.00 0.00 0.00 54 1015.0
20260902073048 26 65 11.3 16.1 0.00 0.00 0.00 58 1015.1
20260902071548 26 87 11.3 19.3 0.00 0.00 0.00 61 1015.1
20260902070047 26 87 8.0 17.7 0.00 0.00 0.00 63 1015.2
20260902064542 26 75 12.9 20.9 0.00 0.00 0.00 64 1015.1
20260902063036 27 79 11.3 17.7 0.00 0.00 0.00 67 1015.1
20260902061536 27 103 11.3 27.4 0.00 0.00 0.00 67 1015.1
20260902060029 27 60 12.9 24.1 0.00 0.00 0.00 68 1015.1
20260902054529 27 59 17.7 27.4 0.00 0.00 0.00 69 1015.0
20260902053031 28 79 8.0 17.7 0.00 0.00 0.00 69 1014.9
20260902051527 28 96 12.9 30.6 0.00 0.00 0.00 69 1014.7
20260902050028 28 54 12.9 30.6 0.00 0.00 0.00 69 1014.7
20260902044526 28 97 12.9 22.5 0.00 0.00 0.00 69 1014.7
20260902043026 29 72 17.7 33.8 0.00 0.00 0.00 68 1014.7
20260902041541 30 109 17.7 27.4 0.00 0.00 0.00 67 1014.6
20260902040026 30 85 17.7 32.2 0.00 0.00 0.00 65 1014.4
20260902034524 30 101 9.7 24.1 0.00 0.00 0.00 63 1014.3
20260902033025 30 73 11.3 17.7 0.00 0.00 0.00 61 1013.9
20260902031522 31 95 4.8 14.5 0.00 0.00 0.00 57 1013.9
20260902030022 31 62 8.0 22.5 0.00 0.00 0.00 55 1013.6
20260902024523 32 53 9.7 22.5 0.00 0.00 0.00 42 1013.4
20260902023021 32 78 3.2 12.9 0.00 0.00 0.00 42 1013.2
20260902021519 32 111 8.0 14.5 0.00 0.00 0.00 42 1012.9
20260902020037 32 80 11.3 20.9 0.00 0.00 0.00 42 1012.5
20260902014518 33 63 12.9 20.9 0.00 0.00 0.00 42 1012.3
20260902013018 33 92 9.7 16.1 0.00 0.00 0.00 43 1012.1
20260902011518 33 64 8.0 24.1 0.00 0.00 0.00 43 1012.0
20260902010024 33 73 11.3 19.3 0.00 0.00 0.00 43 1011.8
20260902004515 33 73 11.3 19.3 0.00 0.00 0.00 43 1011.8
20260902003015 33 70 14.5 25.7 0.00 0.00 0.00 43 1011.8
20260902001518 33 60 11.3 20.9 0.00 0.00 0.00 45 1011.6
20260902000023 33 84 12.9 22.5 0.00 0.00 0.00 45 1011.5
20260901234512 33 67 11.3 20.9 0.00 0.00 0.00 45 1011.3
20260901233011 33 78 17.7 33.8 0.00 0.00 0.00 46 1011.3
20260901231516 33 67 9.7 22.5 0.00 0.00 0.00 45 1011.2
20260901230010 33 73 12.9 20.9 0.00 0.00 0.00 38 1011.2
20260901224512 33 73 16.1 24.1 0.00 0.00 0.00 38 1011.4
20260901223007 33 103 11.3 25.7 0.00 0.00 0.00 39 1011.6
20260901221509 33 63 8.0 16.1 0.00 0.00 0.00 41 1011.6
20260901220004 34 65 8.0 19.3 0.00 0.00 0.00 42 1011.7
20260901214503 34 352 11.3 17.7 0.00 0.00 0.00 42 1011.7
20260901213002 34 70 9.7 20.9 0.00 0.00 0.00 41 1012.0
20260901211600 34 65 9.7 14.5 0.00 0.00 0.00 44 1012.0
20260901210109 34 59 9.7 20.9 0.00 0.00 0.00 44 1012.2
20260901204554 33 37 4.8 20.9 0.00 0.00 0.00 46 1012.3
20260901203108 33 44 1.6 17.7 0.00 0.00 0.00 48 1012.7
20260901201552 33 57 12.9 19.3 0.00 0.00 0.00 50 1012.9
20260901200054 33 34 6.4 17.7 0.00 0.00 0.00 49 1012.9
20260901194545 32 82 6.4 16.1 0.00 0.00 0.00 45 1013.2
20260901193042 33 60 9.7 20.9 0.00 0.00 0.00 49 1013.4
20260901191535 32 118 3.2 14.5 0.00 0.00 0.00 51 1013.7
20260901190048 32 51 4.8 14.5 0.00 0.00 0.00 54 1014.1
20260901184539 32 68 3.2 12.9 0.00 0.00 0.00 56 1014.3
20260901183034 32 49 3.2 16.1 0.00 0.00 0.00 58 1014.4
20260901181530 32 111 3.2 11.3 0.00 0.00 0.00 56 1014.5
20260901180027 31 128 1.6 12.9 0.00 0.00 0.00 59 1014.7
20260901174533 31 82 1.6 9.7 0.00 0.00 0.00 60 1014.8
20260901173024 31 61 0.0 9.7 0.00 0.00 0.00 61 1014.9
20260901171525 30 75 6.4 9.7 0.00 0.00 0.00 60 1015.1
20260901170019 30 163 0.0 9.7 0.00 0.00 0.00 64 1015.2
20260901164517 30 69 0.0 8.0 0.00 0.00 0.00 64 1015.2
20260901163023 30 51 0.0 3.2 0.00 0.00 0.00 67 1015.4
20260901161514 28 31 3.2 9.7 0.00 0.00 0.00 69 1015.3
20260901160014 28 49 4.8 8.0 0.00 0.00 0.00 68 1015.4
20260901154522 28 92 0.0 6.4 0.00 0.00 0.00 69 1015.3
20260901153022 29 281 0.0 8.0 0.00 0.00 0.00 69 1015.4
20260901151514 29 7 0.0 4.8 0.00 0.00 0.00 69 1015.5
20260901150025 29 340 0.0 1.6 0.00 0.00 0.00 69 1015.5
20260901144508 28 287 0.0 0.0 0.00 0.00 0.00 69 1015.5
20260901143002 26 309 0.0 1.6 0.00 0.00 0.00 64 1015.5